START_TIME,STEP,MOV.,P1,t_acc.,E44,t_acc.,A3,t_acc.,P10,t_acc.
1989-08-26T03:00:23.940 ,6,0,0.,1.2,0.,1.2,0.,1.2,0.,1.2
1989-08-26T03:00:25.140 ,6,0,0.,1.2,0.,1.2,0.,1.2,0.,1.2
1989-08-26T03:00:26.340 ,6,0,0.,1.2,0.,1.2,0.,1.2,0.,1.2
1989-08-26T03:00:27.540 ,6,0,0.,1.2,0.,1.2,0.,1.2,0.,1.2
1989-08-26T03:00:28.740 ,6,0,0.,1.2,0.,1.2,0.,1.2,0.,1.2
1989-08-26T03:00:29.940 ,6,0,0.,1.2,0.,1.2,0.,1.2,0.,1.2
1989-08-26T03:00:31.140 ,6,0,0.,1.2,0.,1.2,0.,1.2,0.,1.2
1989-08-26T03:00:32.340 ,6,0,1.,1.2,0.,1.2,0.,1.2,0.,1.2
1989-08-26T03:00:33.540 ,6,0,0.,1.2,0.,1.2,0.,1.2,0.,1.2
1989-08-26T03:00:34.740 ,6,0,0.,1.2,0.,1.2,0.,1.2,0.,1.2
1989-08-26T03:00:35.940 ,6,0,0.,1.2,0.,1.2,0.,1.2,0.,1.2
1989-08-26T03:00:37.140 ,6,0,0.,1.2,0.,1.2,0.,1.2,0.,1.2
1989-08-26T03:00:38.340 ,6,0,0.,1.2,0.,1.2,0.,1.2,0.,1.2
1989-08-26T03:00:39.540 ,6,0,0.,1.2,0.,1.2,0.,1.2,0.,1.2
1989-08-26T03:00:40.740 ,6,0,1.,1.2,0.,1.2,0.,1.2,0.,1.2
1989-08-26T03:00:41.940 ,6,0,0.,1.2,0.,1.2,0.,1.2,0.,1.2
1989-08-26T03:00:43.140 ,6,0,0.,1.2,0.,1.2,0.,1.2,0.,1.2
1989-08-26T03:00:44.340 ,6,0,0.,1.2,0.,1.2,0.,1.2,0.,1.2
1989-08-26T03:00:45.540 ,6,0,0.,1.2,0.,1.2,0.,1.2,0.,1.2
1989-08-26T03:00:46.740 ,6,0,0.,1.2,0.,1.2,0.,1.2,0.,1.2
1989-08-26T03:00:47.940 ,6,0,0.,1.2,0.,1.2,0.,1.2,0.,1.2
1989-08-26T03:00:49.140 ,6,0,0.,1.2,0.,1.2,0.,1.2,0.,1.2
1989-08-26T03:00:50.340 ,6,0,0.,1.2,0.,1.2,0.,1.2,0.,1.2
1989-08-26T03:00:51.540 ,6,0,0.,1.2,0.,1.2,0.,1.2,0.,1.2
1989-08-26T03:00:52.740 ,6,0,0.,1.2,0.,1.2,0.,1.2,0.,1.2
1989-08-26T03:00:53.940 ,6,0,0.,1.2,0.,1.2,0.,1.2,0.,1.2
1989-08-26T03:00:55.140 ,6,0,0.,1.2,0.,1.2,0.,1.2,0.,1.2
1989-08-26T03:00:56.340 ,6,0,0.,1.2,0.,1.2,0.,1.2,0.,1.2
1989-08-26T03:00:57.540 ,6,0,0.,1.2,0.,1.2,0.,1.2,0.,1.2
1989-08-26T03:00:58.740 ,6,0,0.,1.2,0.,1.2,0.,1.2,0.,1.2
1989-08-26T03:00:59.940 ,6,0,0.,1.2,0.,1.2,0.,1.2,0.,1.2
1989-08-26T03:01:01.140 ,6,0,0.,1.2,0.,1.2,0.,1.2,0.,1.2
1989-08-26T03:01:02.340 ,6,0,0.,1.2,0.,1.2,0.,1.2,0.,1.2
1989-08-26T03:01:03.540 ,6,0,0.,1.2,0.,1.2,0.,1.2,0.,1.2
1989-08-26T03:01:04.740 ,6,0,0.,1.2,0.,1.2,0.,1.2,0.,1.2
1989-08-26T03:01:05.940 ,6,0,0.,1.2,0.,1.2,0.,1.2,0.,1.2
1989-08-26T03:01:07.140 ,6,0,0.,1.2,0.,1.2,0.,1.2,0.,1.2
1989-08-26T03:01:08.340 ,6,0,0.,1.2,0.,1.2,0.,1.2,0.,1.2
1989-08-26T03:01:09.540 ,6,0,0.,1.2,0.,1.2,0.,1.2,0.,1.2
1989-08-26T03:01:10.740 ,6,0,0.,1.2,0.,1.2,0.,1.2,0.,1.2
1989-08-26T03:01:11.940 ,6,0,0.,1.2,0.,1.2,0.,1.2,0.,1.2
1989-08-26T03:01:13.140 ,6,0,0.,1.2,0.,1.2,0.,1.2,0.,1.2
1989-08-26T03:01:14.340 ,6,0,0.,1.2,0.,1.2,0.,1.2,0.,1.2
1989-08-26T03:01:15.540 ,6,0,0.,1.2,0.,1.2,0.,1.2,0.,1.2
1989-08-26T03:01:16.740 ,6,0,0.,1.2,0.,1.2,0.,1.2,0.,1.2
1989-08-26T03:01:17.940 ,6,0,0.,1.2,0.,1.2,0.,1.2,0.,1.2
1989-08-26T03:01:19.140 ,6,0,0.,1.2,0.,1.2,0.,1.2,0.,1.2
1989-08-26T03:01:20.340 ,6,0,0.,1.2,0.,1.2,0.,1.2,0.,1.2
1989-08-26T03:01:21.540 ,6,0,0.,1.2,0.,1.2,0.,1.2,0.,1.2
1989-08-26T03:01:22.740 ,6,0,0.,1.2,0.,1.2,0.,1.2,0.,1.2
1989-08-26T03:01:23.940 ,6,0,0.,1.2,0.,1.2,0.,1.2,0.,1.2
1989-08-26T03:01:25.140 ,6,0,0.,1.2,0.,1.2,0.,1.2,0.,1.2
1989-08-26T03:01:26.340 ,6,0,0.,1.2,0.,1.2,0.,1.2,0.,1.2
1989-08-26T03:01:27.540 ,6,0,0.,1.2,0.,1.2,0.,1.2,0.,1.2
1989-08-26T03:01:28.740 ,6,0,0.,1.2,0.,1.2,0.,1.2,0.,1.2
1989-08-26T03:01:29.940 ,6,0,0.,1.2,0.,1.2,0.,1.2,0.,1.2
1989-08-26T03:01:31.140 ,6,0,0.,1.2,0.,1.2,0.,1.2,0.,1.2
1989-08-26T03:01:32.340 ,6,0,0.,1.2,0.,1.2,0.,1.2,0.,1.2
1989-08-26T03:01:33.540 ,6,0,0.,1.2,0.,1.2,0.,1.2,0.,1.2
1989-08-26T03:01:34.740 ,6,0,1.,1.2,0.,1.2,0.,1.2,0.,1.2
1989-08-26T03:01:35.940 ,5,0,0.,1.2,0.,1.2,0.,1.2,0.,1.2
1989-08-26T03:01:37.140 ,5,0,0.,1.2,0.,1.2,2.,1.2,0.,1.2
1989-08-26T03:01:38.340 ,5,0,0.,1.2,0.,1.2,8.,1.2,0.,1.2
1989-08-26T03:01:39.540 ,5,0,0.,1.2,0.,1.2,4.,1.2,0.,1.2
1989-08-26T03:01:40.740 ,5,0,0.,1.2,0.,1.2,5.,1.2,0.,1.2
1989-08-26T03:01:41.940 ,5,0,0.,1.2,0.,1.2,3.,1.2,0.,1.2
1989-08-26T03:01:43.140 ,5,0,0.,1.2,0.,1.2,7.,1.2,0.,1.2
1989-08-26T03:01:44.340 ,5,0,0.,1.2,0.,1.2,1.,1.2,0.,1.2
1989-08-26T03:01:45.540 ,5,0,0.,1.2,0.,1.2,12.,1.2,0.,1.2
1989-08-26T03:01:46.740 ,5,0,0.,1.2,0.,1.2,7.,1.2,0.,1.2
1989-08-26T03:01:47.940 ,5,0,0.,1.2,0.,1.2,1.,1.2,0.,1.2
1989-08-26T03:01:49.140 ,5,0,0.,1.2,0.,1.2,0.,1.2,0.,1.2
1989-08-26T03:01:50.340 ,5,0,0.,1.2,0.,1.2,0.,1.2,0.,1.2
1989-08-26T03:01:51.540 ,5,0,0.,1.2,0.,1.2,0.,1.2,0.,1.2
1989-08-26T03:01:52.740 ,5,0,0.,1.2,0.,1.2,0.,1.2,0.,1.2
1989-08-26T03:01:53.940 ,5,0,0.,1.2,0.,1.2,0.,1.2,0.,1.2
1989-08-26T03:01:55.140 ,5,0,0.,1.2,0.,1.2,0.,1.2,0.,1.2
1989-08-26T03:01:56.340 ,5,0,0.,1.2,0.,1.2,0.,1.2,0.,1.2
1989-08-26T03:01:57.540 ,5,0,0.,1.2,0.,1.2,0.,1.2,0.,1.2
1989-08-26T03:01:58.740 ,5,0,0.,1.2,0.,1.2,0.,1.2,0.,1.2
1989-08-26T03:01:59.940 ,1,0,0.,1.2,0.,1.2,0.,1.2,0.,1.2
1989-08-26T03:02:01.140 ,1,0,0.,1.2,0.,1.2,0.,1.2,0.,1.2
1989-08-26T03:02:02.340 ,1,0,0.,1.2,0.,1.2,0.,1.2,0.,1.2
1989-08-26T03:02:03.540 ,1,0,0.,1.2,0.,1.2,0.,1.2,0.,1.2
1989-08-26T03:02:04.740 ,1,0,0.,1.2,0.,1.2,0.,1.2,0.,1.2
1989-08-26T03:02:05.940 ,1,0,0.,1.2,0.,1.2,0.,1.2,0.,1.2
1989-08-26T03:02:07.140 ,1,0,0.,1.2,0.,1.2,0.,1.2,0.,1.2
1989-08-26T03:02:08.340 ,1,0,0.,1.2,0.,1.2,0.,1.2,0.,1.2
1989-08-26T03:02:09.540 ,1,0,0.,1.2,0.,1.2,0.,1.2,0.,1.2
1989-08-26T03:02:10.740 ,1,0,0.,1.2,0.,1.2,0.,1.2,0.,1.2
1989-08-26T03:02:11.940 ,1,0,0.,1.2,0.,1.2,0.,1.2,0.,1.2
1989-08-26T03:02:13.140 ,1,0,0.,1.2,0.,1.2,0.,1.2,0.,1.2
1989-08-26T03:02:14.340 ,1,0,0.,1.2,0.,1.2,0.,1.2,0.,1.2
1989-08-26T03:02:15.540 ,1,0,0.,1.2,0.,1.2,0.,1.2,0.,1.2
1989-08-26T03:02:16.740 ,1,0,0.,1.2,0.,1.2,0.,1.2,0.,1.2
1989-08-26T03:02:17.940 ,1,0,0.,1.2,0.,1.2,0.,1.2,0.,1.2
1989-08-26T03:02:19.140 ,1,0,0.,1.2,0.,1.2,0.,1.2,0.,1.2
1989-08-26T03:02:20.340 ,1,0,1.,1.2,0.,1.2,0.,1.2,0.,1.2
1989-08-26T03:02:21.540 ,1,0,0.,1.2,0.,1.2,0.,1.2,0.,1.2
1989-08-26T03:02:22.740 ,1,0,0.,1.2,0.,1.2,0.,1.2,0.,1.2
1989-08-26T03:02:23.940 ,0,0,0.,1.2,0.,1.2,0.,1.2,0.,1.2
1989-08-26T03:02:25.140 ,0,0,0.,1.2,0.,1.2,0.,1.2,0.,1.2
1989-08-26T03:02:26.340 ,0,0,0.,1.2,0.,1.2,0.,1.2,0.,1.2
1989-08-26T03:02:27.540 ,0,0,0.,1.2,0.,1.2,0.,1.2,0.,1.2
1989-08-26T03:02:28.740 ,0,0,0.,1.2,0.,1.2,0.,1.2,0.,1.2
1989-08-26T03:02:29.940 ,0,0,0.,1.2,0.,1.2,0.,1.2,0.,1.2
1989-08-26T03:02:31.140 ,0,0,0.,1.2,0.,1.2,0.,1.2,0.,1.2
1989-08-26T03:02:32.340 ,0,0,0.,1.2,0.,1.2,0.,1.2,0.,1.2
1989-08-26T03:02:33.540 ,0,0,0.,1.2,0.,1.2,0.,1.2,0.,1.2
1989-08-26T03:02:34.740 ,0,0,0.,1.2,0.,1.2,0.,1.2,0.,1.2
1989-08-26T03:02:35.940 ,0,0,0.,1.2,0.,1.2,0.,1.2,0.,1.2
1989-08-26T03:02:37.140 ,0,0,0.,1.2,0.,1.2,0.,1.2,0.,1.2
1989-08-26T03:02:38.340 ,0,0,0.,1.2,0.,1.2,0.,1.2,0.,1.2
1989-08-26T03:02:39.540 ,0,0,0.,1.2,0.,1.2,0.,1.2,0.,1.2
1989-08-26T03:02:40.740 ,0,0,0.,1.2,0.,1.2,0.,1.2,0.,1.2
1989-08-26T03:02:41.940 ,0,0,0.,1.2,0.,1.2,0.,1.2,0.,1.2
1989-08-26T03:02:43.140 ,0,0,0.,1.2,0.,1.2,0.,1.2,0.,1.2
1989-08-26T03:02:44.340 ,0,0,0.,1.2,0.,1.2,0.,1.2,0.,1.2
1989-08-26T03:02:45.540 ,0,0,0.,1.2,0.,1.2,0.,1.2,0.,1.2
1989-08-26T03:02:46.740 ,0,0,0.,1.2,0.,1.2,0.,1.2,0.,1.2
1989-08-26T03:02:47.940 ,0,0,0.,1.2,0.,1.2,0.,1.2,0.,1.2
1989-08-26T03:02:49.140 ,0,0,1.,1.2,0.,1.2,0.,1.2,0.,1.2
1989-08-26T03:02:50.340 ,0,0,0.,1.2,0.,1.2,0.,1.2,0.,1.2
1989-08-26T03:02:51.540 ,0,0,0.,1.2,0.,1.2,0.,1.2,0.,1.2
1989-08-26T03:02:52.740 ,0,0,0.,1.2,0.,1.2,0.,1.2,0.,1.2
1989-08-26T03:02:53.940 ,0,0,0.,1.2,0.,1.2,0.,1.2,0.,1.2
1989-08-26T03:02:55.140 ,0,0,0.,1.2,0.,1.2,0.,1.2,0.,1.2
1989-08-26T03:02:56.340 ,0,0,0.,1.2,0.,1.2,0.,1.2,0.,1.2
1989-08-26T03:02:57.540 ,0,0,0.,1.2,0.,1.2,0.,1.2,0.,1.2
1989-08-26T03:02:58.740 ,0,0,0.,1.2,0.,1.2,0.,1.2,0.,1.2
1989-08-26T03:02:59.940 ,0,0,0.,1.2,0.,1.2,0.,1.2,0.,1.2
1989-08-26T03:03:01.140 ,0,0,0.,1.2,0.,1.2,0.,1.2,0.,1.2
1989-08-26T03:03:02.340 ,0,0,0.,1.2,0.,1.2,0.,1.2,0.,1.2
1989-08-26T03:03:03.540 ,0,0,0.,1.2,0.,1.2,0.,1.2,0.,1.2
1989-08-26T03:03:04.740 ,0,0,0.,1.2,0.,1.2,0.,1.2,0.,1.2
1989-08-26T03:03:05.940 ,0,0,0.,1.2,0.,1.2,0.,1.2,0.,1.2
1989-08-26T03:03:07.140 ,0,0,0.,1.2,0.,1.2,0.,1.2,0.,1.2
1989-08-26T03:03:08.340 ,0,0,0.,1.2,0.,1.2,0.,1.2,0.,1.2
1989-08-26T03:03:09.540 ,0,0,0.,1.2,0.,1.2,0.,1.2,0.,1.2
1989-08-26T03:03:10.740 ,0,0,0.,1.2,0.,1.2,0.,1.2,0.,1.2
1989-08-26T03:03:11.940 ,0,0,0.,1.2,0.,1.2,0.,1.2,0.,1.2
1989-08-26T03:03:13.140 ,0,0,0.,1.2,0.,1.2,0.,1.2,0.,1.2
1989-08-26T03:03:14.340 ,0,0,0.,1.2,0.,1.2,0.,1.2,0.,1.2
1989-08-26T03:03:15.540 ,0,0,0.,1.2,0.,1.2,0.,1.2,0.,1.2
1989-08-26T03:03:16.740 ,0,0,0.,1.2,0.,1.2,0.,1.2,0.,1.2
1989-08-26T03:03:17.940 ,0,0,0.,1.2,0.,1.2,0.,1.2,0.,1.2
1989-08-26T03:03:19.140 ,0,0,0.,1.2,0.,1.2,0.,1.2,0.,1.2
1989-08-26T03:03:20.340 ,0,0,0.,1.2,0.,1.2,0.,1.2,0.,1.2
1989-08-26T03:03:21.540 ,0,0,0.,1.2,0.,1.2,0.,1.2,0.,1.2
1989-08-26T03:03:22.740 ,0,0,0.,1.2,0.,1.2,0.,1.2,0.,1.2
1989-08-26T03:03:23.940 ,0,0,0.,1.2,0.,1.2,0.,1.2,0.,1.2
1989-08-26T03:03:25.140 ,0,0,2.,1.2,0.,1.2,0.,1.2,0.,1.2
1989-08-26T03:03:26.340 ,0,0,0.,1.2,0.,1.2,0.,1.2,0.,1.2
1989-08-26T03:03:27.540 ,0,0,0.,1.2,0.,1.2,0.,1.2,0.,1.2
1989-08-26T03:03:28.740 ,0,0,0.,1.2,0.,1.2,0.,1.2,0.,1.2
1989-08-26T03:03:29.940 ,0,0,0.,1.2,0.,1.2,0.,1.2,0.,1.2
1989-08-26T03:03:31.140 ,0,0,0.,1.2,0.,1.2,0.,1.2,0.,1.2
1989-08-26T03:03:32.340 ,0,0,0.,1.2,0.,1.2,0.,1.2,0.,1.2
1989-08-26T03:03:33.540 ,0,0,0.,1.2,0.,1.2,0.,1.2,0.,1.2
1989-08-26T03:03:34.740 ,0,0,0.,1.2,0.,1.2,0.,1.2,0.,1.2
1989-08-26T03:03:35.940 ,0,0,0.,1.2,0.,1.2,0.,1.2,0.,1.2
1989-08-26T03:03:37.140 ,0,0,0.,1.2,0.,1.2,0.,1.2,0.,1.2
1989-08-26T03:03:38.340 ,0,0,0.,1.2,0.,1.2,0.,1.2,0.,1.2
1989-08-26T03:03:39.540 ,0,0,0.,1.2,0.,1.2,0.,1.2,0.,1.2
1989-08-26T03:03:40.740 ,0,0,0.,1.2,0.,1.2,0.,1.2,0.,1.2
1989-08-26T03:03:41.940 ,0,0,0.,1.2,0.,1.2,0.,1.2,0.,1.2
1989-08-26T03:03:43.140 ,0,0,0.,1.2,0.,1.2,0.,1.2,0.,1.2
1989-08-26T03:03:44.340 ,0,0,0.,1.2,0.,1.2,0.,1.2,0.,1.2
1989-08-26T03:03:45.540 ,0,0,0.,1.2,0.,1.2,0.,1.2,0.,1.2
1989-08-26T03:03:46.740 ,0,0,0.,1.2,0.,1.2,0.,1.2,0.,1.2
1989-08-26T03:03:47.940 ,0,0,0.,1.2,0.,1.2,0.,1.2,0.,1.2
1989-08-26T03:03:49.140 ,0,0,0.,1.2,0.,1.2,0.,1.2,0.,1.2
1989-08-26T03:03:50.340 ,0,0,1.,1.2,0.,1.2,0.,1.2,0.,1.2
1989-08-26T03:03:51.540 ,0,0,0.,1.2,0.,1.2,0.,1.2,0.,1.2
1989-08-26T03:03:52.740 ,0,0,0.,1.2,0.,1.2,0.,1.2,0.,1.2
1989-08-26T03:03:53.940 ,0,0,0.,1.2,0.,1.2,0.,1.2,0.,1.2
1989-08-26T03:03:55.140 ,0,0,0.,1.2,0.,1.2,0.,1.2,0.,1.2
1989-08-26T03:03:56.340 ,0,0,0.,1.2,0.,1.2,0.,1.2,0.,1.2
1989-08-26T03:03:57.540 ,0,0,0.,1.2,0.,1.2,0.,1.2,0.,1.2
1989-08-26T03:03:58.740 ,0,0,0.,1.2,0.,1.2,0.,1.2,0.,1.2
1989-08-26T03:03:59.940 ,0,0,0.,1.2,0.,1.2,0.,1.2,0.,1.2
1989-08-26T03:04:01.140 ,0,0,0.,1.2,0.,1.2,0.,1.2,0.,1.2
1989-08-26T03:04:02.340 ,0,0,0.,1.2,0.,1.2,0.,1.2,0.,1.2
1989-08-26T03:04:03.540 ,0,0,0.,1.2,0.,1.2,0.,1.2,0.,1.2
1989-08-26T03:04:04.740 ,0,0,0.,1.2,0.,1.2,0.,1.2,0.,1.2
1989-08-26T03:04:05.940 ,0,0,0.,1.2,0.,1.2,0.,1.2,0.,1.2
1989-08-26T03:04:07.140 ,0,0,0.,1.2,0.,1.2,0.,1.2,0.,1.2
1989-08-26T03:04:08.340 ,0,0,0.,1.2,0.,1.2,0.,1.2,0.,1.2
1989-08-26T03:04:09.540 ,0,0,0.,1.2,0.,1.2,0.,1.2,0.,1.2
1989-08-26T03:04:10.740 ,0,0,0.,1.2,0.,1.2,0.,1.2,0.,1.2
1989-08-26T03:04:11.940 ,0,0,0.,1.2,0.,1.2,0.,1.2,0.,1.2
1989-08-26T03:04:13.140 ,0,0,0.,1.2,0.,1.2,0.,1.2,0.,1.2
1989-08-26T03:04:14.340 ,0,0,0.,1.2,0.,1.2,0.,1.2,0.,1.2
1989-08-26T03:04:15.540 ,0,0,0.,1.2,0.,1.2,0.,1.2,0.,1.2
1989-08-26T03:04:16.740 ,0,0,0.,1.2,0.,1.2,0.,1.2,0.,1.2
1989-08-26T03:04:17.940 ,0,0,0.,1.2,0.,1.2,0.,1.2,0.,1.2
1989-08-26T03:04:19.140 ,0,0,0.,1.2,0.,1.2,0.,1.2,0.,1.2
1989-08-26T03:04:20.340 ,0,0,0.,1.2,0.,1.2,0.,1.2,0.,1.2
1989-08-26T03:04:21.540 ,0,0,0.,1.2,0.,1.2,0.,1.2,0.,1.2
1989-08-26T03:04:22.740 ,0,0,0.,1.2,0.,1.2,0.,1.2,0.,1.2
1989-08-26T03:04:23.940 ,0,0,0.,1.2,0.,1.2,0.,1.2,0.,1.2
1989-08-26T03:04:25.140 ,0,0,0.,1.2,0.,1.2,0.,1.2,0.,1.2
1989-08-26T03:04:26.340 ,0,0,0.,1.2,0.,1.2,0.,1.2,0.,1.2
1989-08-26T03:04:27.540 ,0,0,1.,1.2,0.,1.2,0.,1.2,0.,1.2
1989-08-26T03:04:28.740 ,0,0,0.,1.2,0.,1.2,0.,1.2,0.,1.2
1989-08-26T03:04:29.940 ,0,0,0.,1.2,0.,1.2,0.,1.2,0.,1.2
1989-08-26T03:04:31.140 ,0,0,0.,1.2,0.,1.2,0.,1.2,0.,1.2
1989-08-26T03:04:32.340 ,0,0,0.,1.2,0.,1.2,0.,1.2,0.,1.2
1989-08-26T03:04:33.540 ,0,0,0.,1.2,0.,1.2,0.,1.2,0.,1.2
1989-08-26T03:04:34.740 ,0,0,0.,1.2,0.,1.2,0.,1.2,0.,1.2
1989-08-26T03:04:35.940 ,0,0,0.,1.2,0.,1.2,0.,1.2,0.,1.2
1989-08-26T03:04:37.140 ,0,0,0.,1.2,0.,1.2,0.,1.2,0.,1.2
1989-08-26T03:04:38.340 ,0,0,0.,1.2,0.,1.2,0.,1.2,0.,1.2
1989-08-26T03:04:39.540 ,0,0,0.,1.2,0.,1.2,0.,1.2,0.,1.2
1989-08-26T03:04:40.740 ,0,0,0.,1.2,0.,1.2,0.,1.2,0.,1.2
1989-08-26T03:04:41.940 ,0,0,0.,1.2,0.,1.2,0.,1.2,0.,1.2
1989-08-26T03:04:43.140 ,0,0,0.,1.2,0.,1.2,0.,1.2,0.,1.2
1989-08-26T03:04:44.340 ,0,0,0.,1.2,0.,1.2,0.,1.2,0.,1.2
1989-08-26T03:04:45.540 ,0,0,0.,1.2,0.,1.2,0.,1.2,0.,1.2
1989-08-26T03:04:46.740 ,0,0,0.,1.2,0.,1.2,0.,1.2,0.,1.2
1989-08-26T03:04:47.940 ,0,0,0.,1.2,0.,1.2,0.,1.2,0.,1.2
1989-08-26T03:04:49.140 ,0,0,0.,1.2,0.,1.2,0.,1.2,0.,1.2
1989-08-26T03:04:50.340 ,0,0,0.,1.2,0.,1.2,0.,1.2,0.,1.2
1989-08-26T03:04:51.540 ,0,0,0.,1.2,0.,1.2,0.,1.2,0.,1.2
1989-08-26T03:04:52.740 ,0,0,1.,1.2,0.,1.2,0.,1.2,0.,1.2
1989-08-26T03:04:53.940 ,0,0,0.,1.2,0.,1.2,0.,1.2,0.,1.2
1989-08-26T03:04:55.140 ,0,0,0.,1.2,0.,1.2,0.,1.2,0.,1.2
1989-08-26T03:04:56.340 ,0,0,0.,1.2,0.,1.2,0.,1.2,0.,1.2
1989-08-26T03:04:57.540 ,0,0,0.,1.2,0.,1.2,0.,1.2,0.,1.2
1989-08-26T03:04:58.740 ,0,0,0.,1.2,0.,1.2,0.,1.2,0.,1.2
1989-08-26T03:04:59.940 ,0,0,0.,1.2,0.,1.2,0.,1.2,0.,1.2
1989-08-26T03:05:01.140 ,0,0,0.,1.2,0.,1.2,0.,1.2,0.,1.2
1989-08-26T03:05:02.340 ,0,0,0.,1.2,0.,1.2,0.,1.2,0.,1.2
1989-08-26T03:05:03.540 ,0,0,0.,1.2,0.,1.2,0.,1.2,0.,1.2
1989-08-26T03:05:04.740 ,0,0,0.,1.2,0.,1.2,0.,1.2,0.,1.2
1989-08-26T03:05:05.940 ,0,0,0.,1.2,0.,1.2,0.,1.2,0.,1.2
1989-08-26T03:05:07.140 ,0,0,0.,1.2,0.,1.2,0.,1.2,0.,1.2
1989-08-26T03:05:08.340 ,0,0,0.,1.2,0.,1.2,0.,1.2,0.,1.2
1989-08-26T03:05:09.540 ,0,0,0.,1.2,0.,1.2,0.,1.2,0.,1.2
1989-08-26T03:05:10.740 ,0,0,0.,1.2,0.,1.2,0.,1.2,0.,1.2
1989-08-26T03:05:11.940 ,0,0,0.,1.2,0.,1.2,0.,1.2,0.,1.2
1989-08-26T03:05:13.140 ,0,0,0.,1.2,0.,1.2,0.,1.2,0.,1.2
1989-08-26T03:05:14.340 ,0,0,0.,1.2,0.,1.2,0.,1.2,0.,1.2
1989-08-26T03:05:15.540 ,0,0,0.,1.2,0.,1.2,0.,1.2,0.,1.2
1989-08-26T03:05:16.740 ,0,0,0.,1.2,0.,1.2,0.,1.2,0.,1.2
1989-08-26T03:05:17.940 ,0,0,0.,1.2,0.,1.2,0.,1.2,0.,1.2
1989-08-26T03:05:19.140 ,0,0,0.,1.2,0.,1.2,0.,1.2,0.,1.2
1989-08-26T03:05:20.340 ,0,0,0.,1.2,0.,1.2,0.,1.2,0.,1.2
1989-08-26T03:05:21.540 ,0,0,0.,1.2,0.,1.2,0.,1.2,0.,1.2
1989-08-26T03:05:22.740 ,0,0,0.,1.2,0.,1.2,0.,1.2,0.,1.2
1989-08-26T03:05:23.940 ,0,0,1.,1.2,0.,1.2,0.,1.2,0.,1.2
1989-08-26T03:05:25.140 ,0,0,0.,1.2,0.,1.2,0.,1.2,0.,1.2
1989-08-26T03:05:26.340 ,0,0,0.,1.2,0.,1.2,0.,1.2,0.,1.2
1989-08-26T03:05:27.540 ,0,0,1.,1.2,0.,1.2,0.,1.2,0.,1.2
1989-08-26T03:05:28.740 ,0,0,0.,1.2,0.,1.2,0.,1.2,0.,1.2
1989-08-26T03:05:29.940 ,0,0,0.,1.2,0.,1.2,0.,1.2,0.,1.2
1989-08-26T03:05:31.140 ,0,0,0.,1.2,0.,1.2,0.,1.2,0.,1.2
1989-08-26T03:05:32.340 ,0,0,0.,1.2,0.,1.2,0.,1.2,0.,1.2
1989-08-26T03:05:33.540 ,0,0,0.,1.2,0.,1.2,0.,1.2,0.,1.2
1989-08-26T03:05:34.740 ,0,0,0.,1.2,0.,1.2,0.,1.2,0.,1.2
1989-08-26T03:05:35.940 ,0,0,0.,1.2,0.,1.2,0.,1.2,0.,1.2
1989-08-26T03:05:37.140 ,0,0,0.,1.2,0.,1.2,0.,1.2,0.,1.2
1989-08-26T03:05:38.340 ,0,0,0.,1.2,0.,1.2,0.,1.2,0.,1.2
1989-08-26T03:05:39.540 ,0,0,0.,1.2,0.,1.2,0.,1.2,0.,1.2
1989-08-26T03:05:40.740 ,0,0,0.,1.2,0.,1.2,0.,1.2,0.,1.2
1989-08-26T03:05:41.940 ,0,0,0.,1.2,0.,1.2,0.,1.2,0.,1.2
1989-08-26T03:05:43.140 ,0,0,0.,1.2,0.,1.2,0.,1.2,0.,1.2
1989-08-26T03:05:44.340 ,0,0,0.,1.2,0.,1.2,0.,1.2,0.,1.2
1989-08-26T03:05:45.540 ,0,0,0.,1.2,0.,1.2,0.,1.2,0.,1.2
1989-08-26T03:05:46.740 ,0,0,0.,1.2,0.,1.2,0.,1.2,0.,1.2
1989-08-26T03:05:47.940 ,0,0,0.,1.2,0.,1.2,0.,1.2,0.,1.2
1989-08-26T03:05:49.140 ,0,0,0.,1.2,0.,1.2,0.,1.2,0.,1.2
1989-08-26T03:05:50.340 ,0,0,0.,1.2,0.,1.2,0.,1.2,0.,1.2
1989-08-26T03:05:51.540 ,0,0,0.,1.2,0.,1.2,0.,1.2,0.,1.2
1989-08-26T03:05:52.740 ,0,0,0.,1.2,0.,1.2,0.,1.2,0.,1.2
1989-08-26T03:05:53.940 ,0,0,0.,1.2,0.,1.2,0.,1.2,0.,1.2
1989-08-26T03:05:55.140 ,0,0,0.,1.2,0.,1.2,0.,1.2,0.,1.2
1989-08-26T03:05:56.340 ,0,0,0.,1.2,0.,1.2,0.,1.2,0.,1.2
1989-08-26T03:05:57.540 ,0,0,0.,1.2,0.,1.2,0.,1.2,0.,1.2
1989-08-26T03:05:58.740 ,0,0,0.,1.2,0.,1.2,0.,1.2,0.,1.2
1989-08-26T03:05:59.940 ,0,0,0.,1.2,0.,1.2,0.,1.2,0.,1.2
1989-08-26T03:06:01.140 ,0,0,0.,1.2,0.,1.2,0.,1.2,0.,1.2
1989-08-26T03:06:02.340 ,0,0,0.,1.2,0.,1.2,0.,1.2,0.,1.2
1989-08-26T03:06:03.540 ,0,0,0.,1.2,0.,1.2,0.,1.2,0.,1.2
1989-08-26T03:06:04.740 ,0,0,0.,1.2,0.,1.2,0.,1.2,0.,1.2
1989-08-26T03:06:05.940 ,0,0,0.,1.2,0.,1.2,0.,1.2,0.,1.2
1989-08-26T03:06:07.140 ,0,0,0.,1.2,0.,1.2,0.,1.2,0.,1.2
1989-08-26T03:06:08.340 ,0,0,0.,1.2,0.,1.2,0.,1.2,0.,1.2
1989-08-26T03:06:09.540 ,0,0,0.,1.2,0.,1.2,0.,1.2,0.,1.2
1989-08-26T03:06:10.740 ,0,0,0.,1.2,0.,1.2,0.,1.2,0.,1.2
1989-08-26T03:06:11.940 ,0,0,0.,1.2,0.,1.2,0.,1.2,0.,1.2
1989-08-26T03:06:13.140 ,0,0,0.,1.2,0.,1.2,0.,1.2,0.,1.2
1989-08-26T03:06:14.340 ,0,0,0.,1.2,0.,1.2,0.,1.2,0.,1.2
1989-08-26T03:06:15.540 ,0,0,0.,1.2,0.,1.2,0.,1.2,0.,1.2
1989-08-26T03:06:16.740 ,0,0,1.,1.2,0.,1.2,0.,1.2,0.,1.2
1989-08-26T03:06:17.940 ,0,0,1.,1.2,0.,1.2,0.,1.2,0.,1.2
1989-08-26T03:06:19.140 ,0,0,0.,1.2,0.,1.2,0.,1.2,0.,1.2
1989-08-26T03:06:20.340 ,0,0,0.,1.2,0.,1.2,0.,1.2,0.,1.2
1989-08-26T03:06:21.540 ,0,0,0.,1.2,0.,1.2,0.,1.2,0.,1.2
1989-08-26T03:06:22.740 ,0,0,0.,1.2,0.,1.2,0.,1.2,0.,1.2
1989-08-26T03:06:23.940 ,0,0,0.,1.2,0.,1.2,0.,1.2,0.,1.2
1989-08-26T03:06:25.140 ,0,0,0.,1.2,0.,1.2,0.,1.2,0.,1.2
1989-08-26T03:06:26.340 ,0,0,0.,1.2,0.,1.2,0.,1.2,0.,1.2
1989-08-26T03:06:27.540 ,0,0,0.,1.2,0.,1.2,0.,1.2,0.,1.2
1989-08-26T03:06:28.740 ,0,0,0.,1.2,0.,1.2,0.,1.2,0.,1.2
1989-08-26T03:06:29.940 ,0,0,0.,1.2,0.,1.2,0.,1.2,0.,1.2
1989-08-26T03:06:31.140 ,0,0,0.,1.2,0.,1.2,0.,1.2,0.,1.2
1989-08-26T03:06:32.340 ,0,0,0.,1.2,0.,1.2,0.,1.2,0.,1.2
1989-08-26T03:06:33.540 ,0,0,0.,1.2,0.,1.2,0.,1.2,0.,1.2
1989-08-26T03:06:34.740 ,0,0,0.,1.2,0.,1.2,0.,1.2,0.,1.2
1989-08-26T03:06:35.940 ,0,0,0.,1.2,0.,1.2,0.,1.2,0.,1.2
1989-08-26T03:06:37.140 ,0,0,0.,1.2,0.,1.2,0.,1.2,0.,1.2
1989-08-26T03:06:38.340 ,0,0,0.,1.2,0.,1.2,0.,1.2,0.,1.2
1989-08-26T03:06:39.540 ,0,0,0.,1.2,0.,1.2,0.,1.2,0.,1.2
1989-08-26T03:06:40.740 ,0,0,0.,1.2,0.,1.2,0.,1.2,0.,1.2
1989-08-26T03:06:41.940 ,0,0,0.,1.2,0.,1.2,0.,1.2,0.,1.2
1989-08-26T03:06:43.140 ,0,0,0.,1.2,0.,1.2,0.,1.2,0.,1.2
1989-08-26T03:06:44.340 ,0,0,0.,1.2,0.,1.2,0.,1.2,0.,1.2
1989-08-26T03:06:45.540 ,0,0,0.,1.2,0.,1.2,0.,1.2,0.,1.2
1989-08-26T03:06:46.740 ,0,0,0.,1.2,0.,1.2,0.,1.2,0.,1.2
1989-08-26T03:06:47.940 ,0,0,0.,1.2,0.,1.2,0.,1.2,0.,1.2
1989-08-26T03:06:49.140 ,0,0,0.,1.2,0.,1.2,0.,1.2,0.,1.2
1989-08-26T03:06:50.340 ,0,0,0.,1.2,0.,1.2,0.,1.2,0.,1.2
1989-08-26T03:06:51.540 ,0,0,0.,1.2,0.,1.2,0.,1.2,0.,1.2
1989-08-26T03:06:52.740 ,0,0,0.,1.2,0.,1.2,0.,1.2,0.,1.2
1989-08-26T03:06:53.940 ,0,0,0.,1.2,0.,1.2,0.,1.2,0.,1.2
1989-08-26T03:06:55.140 ,0,0,0.,1.2,0.,1.2,0.,1.2,0.,1.2
1989-08-26T03:06:56.340 ,0,0,0.,1.2,0.,1.2,0.,1.2,0.,1.2
1989-08-26T03:06:57.540 ,0,0,1.,1.2,0.,1.2,0.,1.2,0.,1.2
1989-08-26T03:06:58.740 ,0,0,0.,1.2,0.,1.2,0.,1.2,0.,1.2
1989-08-26T03:06:59.940 ,0,0,1.,1.2,0.,1.2,0.,1.2,0.,1.2
1989-08-26T03:07:01.140 ,0,0,0.,1.2,0.,1.2,0.,1.2,0.,1.2
1989-08-26T03:07:02.340 ,0,0,0.,1.2,0.,1.2,0.,1.2,0.,1.2
1989-08-26T03:07:03.540 ,0,0,0.,1.2,0.,1.2,0.,1.2,0.,1.2
1989-08-26T03:07:04.740 ,0,0,0.,1.2,0.,1.2,0.,1.2,0.,1.2
1989-08-26T03:07:05.940 ,0,0,0.,1.2,0.,1.2,0.,1.2,0.,1.2
1989-08-26T03:07:07.140 ,0,0,0.,1.2,0.,1.2,0.,1.2,0.,1.2
1989-08-26T03:07:08.340 ,0,0,0.,1.2,0.,1.2,0.,1.2,0.,1.2
1989-08-26T03:07:09.540 ,0,0,0.,1.2,0.,1.2,0.,1.2,0.,1.2
1989-08-26T03:07:10.740 ,0,0,0.,1.2,0.,1.2,0.,1.2,0.,1.2
1989-08-26T03:07:11.940 ,4,0,0.,1.2,0.,1.2,0.,1.2,0.,1.2
1989-08-26T03:07:13.140 ,4,0,0.,1.2,0.,1.2,0.,1.2,0.,1.2
1989-08-26T03:07:14.340 ,4,0,0.,1.2,0.,1.2,0.,1.2,0.,1.2
1989-08-26T03:07:15.540 ,4,0,0.,1.2,0.,1.2,0.,1.2,0.,1.2
1989-08-26T03:07:16.740 ,4,0,0.,1.2,0.,1.2,0.,1.2,0.,1.2
1989-08-26T03:07:17.940 ,4,0,0.,1.2,0.,1.2,0.,1.2,0.,1.2
1989-08-26T03:07:19.140 ,4,0,0.,1.2,0.,1.2,0.,1.2,0.,1.2
1989-08-26T03:07:20.340 ,4,0,0.,1.2,0.,1.2,0.,1.2,0.,1.2
1989-08-26T03:07:21.540 ,4,0,0.,1.2,0.,1.2,0.,1.2,0.,1.2
1989-08-26T03:07:22.740 ,4,0,0.,1.2,0.,1.2,0.,1.2,0.,1.2
1989-08-26T03:07:23.940 ,4,0,0.,1.2,0.,1.2,0.,1.2,0.,1.2
1989-08-26T03:07:25.140 ,4,0,0.,1.2,0.,1.2,0.,1.2,0.,1.2
1989-08-26T03:07:26.340 ,4,0,0.,1.2,0.,1.2,0.,1.2,0.,1.2
1989-08-26T03:07:27.540 ,4,0,0.,1.2,0.,1.2,0.,1.2,0.,1.2
1989-08-26T03:07:28.740 ,4,0,0.,1.2,0.,1.2,0.,1.2,0.,1.2
1989-08-26T03:07:29.940 ,4,0,0.,1.2,0.,1.2,0.,1.2,0.,1.2
1989-08-26T03:07:31.140 ,4,0,0.,1.2,0.,1.2,0.,1.2,0.,1.2
1989-08-26T03:07:32.340 ,4,0,0.,1.2,0.,1.2,0.,1.2,0.,1.2
1989-08-26T03:07:33.540 ,4,0,0.,1.2,0.,1.2,0.,1.2,0.,1.2
1989-08-26T03:07:34.740 ,4,0,0.,1.2,0.,1.2,0.,1.2,0.,1.2
1989-08-26T03:07:35.940 ,7,0,0.,1.2,0.,1.2,0.,1.2,0.,1.2
1989-08-26T03:07:37.140 ,7,0,0.,1.2,0.,1.2,0.,1.2,0.,1.2
1989-08-26T03:07:38.340 ,7,0,0.,1.2,0.,1.2,0.,1.2,0.,1.2
1989-08-26T03:07:39.540 ,7,0,0.,1.2,0.,1.2,0.,1.2,0.,1.2
1989-08-26T03:07:40.740 ,7,0,0.,1.2,0.,1.2,0.,1.2,0.,1.2
1989-08-26T03:07:41.940 ,7,0,0.,1.2,0.,1.2,0.,1.2,0.,1.2
1989-08-26T03:07:43.140 ,7,0,0.,1.2,0.,1.2,0.,1.2,0.,1.2
1989-08-26T03:07:44.340 ,7,0,0.,1.2,0.,1.2,0.,1.2,0.,1.2
1989-08-26T03:07:45.540 ,7,0,0.,1.2,0.,1.2,0.,1.2,0.,1.2
1989-08-26T03:07:46.740 ,7,0,0.,1.2,0.,1.2,0.,1.2,0.,1.2
1989-08-26T03:07:47.940 ,7,0,0.,1.2,0.,1.2,1.,1.2,0.,1.2
1989-08-26T03:07:49.140 ,7,0,0.,1.2,0.,1.2,3.,1.2,0.,1.2
1989-08-26T03:07:50.340 ,7,0,0.,1.2,0.,1.2,3.,1.2,0.,1.2
1989-08-26T03:07:51.540 ,7,0,0.,1.2,0.,1.2,8.,1.2,0.,1.2
1989-08-26T03:07:52.740 ,7,0,0.,1.2,0.,1.2,5.,1.2,0.,1.2
1989-08-26T03:07:53.940 ,7,0,0.,1.2,0.,1.2,6.,1.2,0.,1.2
1989-08-26T03:07:55.140 ,7,0,0.,1.2,0.,1.2,7.,1.2,0.,1.2
1989-08-26T03:07:56.340 ,7,0,0.,1.2,0.,1.2,3.,1.2,0.,1.2
1989-08-26T03:07:57.540 ,7,0,0.,1.2,0.,1.2,12.,1.2,0.,1.2
1989-08-26T03:07:58.740 ,7,0,0.,1.2,0.,1.2,6.,1.2,0.,1.2
1989-08-26T03:07:59.940 ,6,0,0.,1.2,0.,1.2,2.,1.2,0.,1.2
1989-08-26T03:08:01.140 ,6,0,0.,1.2,0.,1.2,0.,1.2,0.,1.2
1989-08-26T03:08:02.340 ,6,0,0.,1.2,0.,1.2,0.,1.2,0.,1.2
1989-08-26T03:08:03.540 ,6,0,0.,1.2,0.,1.2,0.,1.2,0.,1.2
1989-08-26T03:08:04.740 ,6,0,0.,1.2,0.,1.2,0.,1.2,0.,1.2
1989-08-26T03:08:05.940 ,6,0,0.,1.2,0.,1.2,0.,1.2,0.,1.2
1989-08-26T03:08:07.140 ,6,0,0.,1.2,0.,1.2,0.,1.2,0.,1.2
1989-08-26T03:08:08.340 ,6,0,0.,1.2,0.,1.2,0.,1.2,0.,1.2
1989-08-26T03:08:09.540 ,6,0,0.,1.2,0.,1.2,0.,1.2,0.,1.2
1989-08-26T03:08:10.740 ,6,0,0.,1.2,0.,1.2,0.,1.2,0.,1.2
1989-08-26T03:08:11.940 ,6,0,0.,1.2,0.,1.2,0.,1.2,0.,1.2
1989-08-26T03:08:13.140 ,6,0,0.,1.2,0.,1.2,0.,1.2,0.,1.2
1989-08-26T03:08:14.340 ,6,0,0.,1.2,0.,1.2,0.,1.2,0.,1.2
1989-08-26T03:08:15.540 ,6,0,0.,1.2,0.,1.2,0.,1.2,0.,1.2
1989-08-26T03:08:16.740 ,6,0,0.,1.2,0.,1.2,0.,1.2,0.,1.2
1989-08-26T03:08:17.940 ,6,0,0.,1.2,0.,1.2,0.,1.2,0.,1.2
1989-08-26T03:08:19.140 ,6,0,0.,1.2,0.,1.2,0.,1.2,0.,1.2
1989-08-26T03:08:20.340 ,6,0,0.,1.2,0.,1.2,0.,1.2,0.,1.2
1989-08-26T03:08:21.540 ,6,0,0.,1.2,0.,1.2,0.,1.2,0.,1.2
1989-08-26T03:08:22.740 ,6,0,1.,1.2,0.,1.2,0.,1.2,0.,1.2
1989-08-26T03:08:23.940 ,6,0,0.,1.2,0.,1.2,0.,1.2,0.,1.2
1989-08-26T03:08:25.140 ,6,0,0.,1.2,0.,1.2,0.,1.2,0.,1.2
1989-08-26T03:08:26.340 ,6,0,0.,1.2,0.,1.2,0.,1.2,0.,1.2
1989-08-26T03:08:27.540 ,6,0,0.,1.2,0.,1.2,0.,1.2,0.,1.2
1989-08-26T03:08:28.740 ,6,0,0.,1.2,0.,1.2,0.,1.2,0.,1.2
1989-08-26T03:08:29.940 ,6,0,1.,1.2,0.,1.2,0.,1.2,0.,1.2
1989-08-26T03:08:31.140 ,6,0,0.,1.2,0.,1.2,0.,1.2,0.,1.2
1989-08-26T03:08:32.340 ,6,0,0.,1.2,0.,1.2,0.,1.2,0.,1.2
1989-08-26T03:08:33.540 ,6,0,0.,1.2,0.,1.2,0.,1.2,0.,1.2
1989-08-26T03:08:34.740 ,6,0,0.,1.2,0.,1.2,0.,1.2,0.,1.2
1989-08-26T03:08:35.940 ,6,0,0.,1.2,0.,1.2,0.,1.2,0.,1.2
1989-08-26T03:08:37.140 ,6,0,0.,1.2,0.,1.2,0.,1.2,0.,1.2